Wind_Speed
53 48 42 44 36 37 39 25 29 24 22 20 23 17 14 13 9 2 4 5 4 5 2 7 5 6 9 9 6 7 9 7 8 8 10 13 10 12 12 12 10 10 11 12
56 48 44 45 42 40 36 30 29 26 29 21 20 16 10 18 10 3 2 6 2 2 0 5 5 4 8 7 5 5 7 9 6 8 8 10 10 9 10 9 8 8 10 9
58 50 45 46 42 39 38 32 30 27 21 24 24 15 15 16 11 6 1 5 2 1 3 4 5 5 6 6 5 6 8 8 8 8 11 11 7 8 9 10 9 9 9 12
62 57 50 45 44 42 37 35 31 29 24 21 18 11 17 17 11 7 2 4 3 3 3 4 5 6 4 6 6 7 9 9 10 9 13 15 14 12 14 11 14 14 11 7
62 59 52 50 46 45 43 40 35 31 29 26 21 17 20 17 12 9 5 4 5 4 4 5 7 7 4 5 6 7 8 8 8 9 13 16 20 16 17 17 18 18 17 17
63 59 58 57 50 45 42 41 37 33 31 32 28 24 17 16 15 11 6 5 4 5 4 6 4 8 6 5 5 5 5 4 6 10 12 14 15 18 18 18 17 21 20 24
62 61 62 49 51 43 45 45 41 37 34 35 31 24 16 19 17 16 11 4 6 7 5 5 3 3 6 4 4 3 5 4 5 9 12 13 13 14 15 16 18 20 22 25
59 61 57 48 45 51 53 47 44 41 36 36 34 28 22 21 21 19 14 8 5 6 6 4 6 5 3 4 2 1 4 4 4 7 9 8 9 9 11 14 16 18 19 20
53 62 63 55 52 55 51 50 46 43 37 38 38 32 27 24 24 23 18 14 8 7 7 5 5 5 8 3 0 3 3 5 4 3 6 5 3 6 10 11 14 15 16 17
55 63 58 51 55 56 51 51 48 43 40 38 37 34 30 26 29 26 21 18 14 10 8 8 7 7 8 6 2 3 5 6 6 5 6 6 5 8 12 15 16 18 20 19
54 60 58 53 54 53 56 55 51 44 39 37 36 36 30 28 30 27 23 20 20 16 11 10 10 8 8 9 6 6 5 7 8 7 9 8 7 10 11 12 13 16 17 18
51 56 57 57 50 56 55 55 53 49 41 38 30 40 36 31 31 28 25 22 20 20 18 13 12 10 11 10 8 9 9 8 8 10 13 12 11 12 13 12 12 13 12 11
48 57 48 57 58 53 56 54 53 52 45 41 36 33 34 33 29 27 28 24 21 20 20 19 16 13 11 11 11 10 12 12 11 11 13 16 15 15 15 12 11 13 12 10
53 55 56 50 55 61 55 52 51 51 45 48 41 40 36 35 32 27 25 24 23 22 23 23 21 18 16 15 15 14 14 14 15 15 15 16 17 17 16 15 14 14 15 13
54 64 61 52 54 56 60 55 52 51 48 45 40 40 38 34 29 26 23 23 26 31 29 28 28 25 19 18 18 17 15 15 15 16 17 18 18 19 20 19 19 19 20 20
41 57 65 63 60 59 56 56 58 54 51 49 44 40 41 38 33 33 32 27 28 32 36 31 32 28 24 19 20 19 17 17 18 20 20 19 19 21 21 23 24 24 24 25
38 38 64 70 60 58 52 53 55 61 59 48 50 47 46 42 40 38 37 31 30 32 36 34 35 33 28 23 23 21 18 18 18 19 21 22 24 23 25 25 24 25 26 26
42 32 37 59 60 57 60 56 55 55 58 60 56 55 53 49 45 39 34 31 36 35 38 38 35 37 35 30 28 26 23 20 18 19 22 22 21 22 24 27 26 24 24 23
44 44 37 39 55 68 71 65 63 58 56 53 54 55 55 54 52 49 41 35 38 35 34 34 37 42 40 35 35 32 28 26 25 24 22 21 20 22 24 25 26 28 30 29
42 49 44 43 44 52 69 75 75 70 63 57 52 52 54 55 50 44 44 42 38 33 35 33 35 38 43 41 40 36 33 31 30 28 25 24 24 23 23 24 25 27 29 31
24 29 32 41 42 40 43 72 76 75 72 66 62 58 57 58 58 49 45 49 50 43 42 39 38 41 54 44 45 43 39 37 33 32 28 29 27 25 24 24 23 24 25 25
15 22 36 38 43 45 41 37 68 74 75 71 69 65 65 59 53 54 49 45 47 46 49 51 48 50 48 51 50 47 44 43 36 35 34 33 32 29 29 27 25 26 26 25
12 11 19 21 29 40 47 44 40 44 72 76 75 75 72 65 59 56 56 56 56 51 54 48 49 49 46 40 51 46 46 47 42 35 34 34 33 33 34 33 31 29 32 31
15 13 18 16 19 28 35 43 42 46 47 65 84 81 76 73 67 66 61 57 59 55 57 56 51 49 50 54 56 65 57 50 39 32 34 35 34 35 36 37 36 35 38 41
20 16 13 21 19 17 24 35 44 51 58 57 70 80 82 84 74 75 68 62 61 63 62 62 56 54 54 56 60 60 60 52 34 38 41 40 40 41 42 43 42 41 41 42
21 21 22 21 19 16 16 21 30 41 57 62 69 70 76 92 83 81 76 70 67 72 71 65 55 53 39 49 57 53 48 48 45 51 49 47 45 45 37 33 33 38 44 43
25 23 21 25 31 30 28 24 22 25 35 49 58 66 72 66 74 90 87 76 74 79 80 74 61 57 48 40 44 53 51 49 57 57 54 49 43 38 34 33 32 27 28 38
Wind_Direction
202 201 202 206 210 220 228 214 205 184 181 194 212 189 201 230 191 196 30 12 2 341 352 11 15 4 349 354 342 357 17 16 19 29 53 61 76 73 80 94 108 107 109 121
198 199 200 203 204 207 213 205 197 184 174 189 214 196 213 218 188 148 22 11 3 346 65 20 17 11 354 0 355 19 18 6 62 58 62 41 61 71 82 81 102 111 116 116
193 197 200 205 203 206 208 197 200 199 171 200 207 197 219 220 179 153 87 43 97 53 147 46 29 29 1 11 12 39 34 61 78 76 67 65 60 73 75 88 82 120 123 109
194 196 203 199 204 206 202 198 194 189 186 191 206 220 220 205 187 159 155 88 99 99 146 87 41 43 10 16 29 58 69 77 85 77 70 67 83 93 85 71 84 109 98 83
197 196 200 202 202 207 200 199 193 193 183 181 180 201 216 205 197 179 160 112 133 95 128 108 54 52 23 29 37 83 93 83 71 60 69 75 76 85 91 93 89 90 86 86
194 194 200 205 203 205 199 201 196 191 188 190 184 198 218 214 210 200 163 154 115 135 135 133 93 56 42 41 40 101 106 89 71 76 78 83 86 91 90 93 93 89 98 88
193 195 200 206 203 201 203 203 200 198 197 198 193 190 209 219 209 199 184 161 132 158 145 174 181 55 46 50 57 84 118 115 101 100 98 97 93 93 95 93 94 100 98 95
197 198 201 201 204 202 207 206 204 206 203 206 195 194 206 215 196 212 183 175 155 163 170 163 201 248 356 30 90 112 126 133 127 130 115 104 106 100 101 101 100 103 104 105
204 202 203 203 203 207 207 210 210 209 206 206 203 198 207 209 195 202 200 189 190 175 173 185 171 231 261 304 190 176 185 163 180 172 139 126 118 118 117 118 117 112 109 107
212 205 210 208 208 210 208 212 214 211 207 209 210 200 209 211 197 199 198 198 196 201 176 192 198 193 215 252 258 210 202 204 184 192 170 147 144 140 127 124 120 117 114 109
213 211 211 213 212 213 213 212 217 214 208 206 208 203 209 211 201 196 201 208 202 205 208 200 207 208 201 223 242 241 228 213 206 179 180 171 168 163 151 140 130 125 119 115
205 207 210 214 214 213 215 215 214 217 212 208 213 213 210 207 208 199 199 209 208 210 211 217 215 214 206 216 233 231 231 219 214 195 185 187 188 187 180 172 163 157 152 144
201 207 211 217 217 216 216 217 213 218 216 211 213 207 210 209 214 210 192 204 218 220 218 225 228 220 219 225 236 229 223 229 222 213 202 197 195 203 209 210 208 199 198 197
192 207 209 216 217 218 219 215 214 217 216 215 222 221 220 225 221 220 225 216 222 227 228 226 232 227 222 230 236 233 230 230 231 226 218 216 210 212 218 222 226 228 226 229
198 202 211 218 210 216 221 217 215 217 214 214 212 218 216 218 218 221 230 254 253 239 227 227 230 234 222 231 235 233 223 225 229 229 226 227 229 227 225 229 232 235 239 243
196 198 209 214 226 214 220 218 215 206 204 213 217 222 222 221 224 233 240 260 253 236 231 219 228 232 234 230 230 224 225 228 227 224 227 233 235 234 236 239 243 245 249 254
226 201 204 214 222 217 214 220 219 224 223 220 232 229 223 228 237 239 240 258 248 249 235 230 224 231 231 231 226 216 213 213 217 223 230 237 241 243 238 239 244 250 253 257
233 239 212 210 209 215 222 223 224 224 227 229 230 235 234 234 234 240 248 253 253 248 238 233 229 233 235 228 223 221 221 218 221 225 229 234 237 241 246 245 247 247 247 251
241 239 248 240 215 215 223 222 226 226 227 226 226 230 236 237 239 239 245 246 248 242 239 239 233 232 233 233 231 219 219 228 225 226 236 244 242 240 238 241 243 248 253 254
255 253 259 246 226 225 220 225 228 227 228 227 230 229 232 238 240 239 238 234 243 246 234 237 241 239 235 233 233 227 224 221 233 233 239 243 250 251 248 243 241 241 249 255
267 269 265 256 258 239 230 225 227 231 231 232 230 228 230 234 237 239 241 240 240 238 234 243 250 242 240 228 227 229 229 227 228 238 246 248 250 250 250 248 249 252 254 255
262 257 265 262 254 252 252 253 222 221 227 230 230 229 230 230 235 236 240 234 232 236 235 246 245 245 253 234 231 225 228 234 230 240 248 249 257 256 252 252 250 249 250 253
308 259 250 243 245 251 249 252 245 237 225 228 230 232 233 230 230 233 239 238 240 241 239 246 258 253 261 244 233 224 229 228 232 234 239 245 252 254 254 256 256 252 258 263
323 294 247 237 220 227 237 243 239 247 249 234 231 232 236 235 237 237 236 239 241 243 241 247 251 260 258 256 254 238 213 223 226 233 242 248 251 254 257 260 263 265 268 272
332 304 280 254 241 227 222 225 231 235 239 242 237 236 236 238 238 241 240 230 236 248 249 246 252 258 254 258 261 207 215 217 216 233 240 246 248 250 254 259 263 263 263 266
313 314 287 282 271 257 250 236 229 230 233 236 235 236 241 236 239 236 239 238 243 248 249 249 256 249 253 257 243 209 204 212 219 230 233 239 244 248 253 254 257 256 257 260
288 293 304 285 277 265 255 249 249 247 240 236 237 237 241 239 240 234 236 238 243 244 248 250 255 242 249 252 204 206 209 211 221 228 233 239 243 239 240 253 265 270 266 258
Height
5630 5637 5645 5654 5664 5669 5673 5690 5692 5707 5713 5717 5721 5723 5728 5730 5730 5730 5730 5730 5728 5728 5728 5727 5727 5727 5725 5724 5723 5722 5719 5717 5716 5714 5712 5711 5710 5708 5706 5706 5706 5706 5707 5708
5623 5633 5640 5647 5654 5660 5671 5682 5691 5699 5707 5713 5717 5720 5725 5728 5728 5728 5728 5728 5727 5727 5727 5727 5727 5727 5726 5724 5724 5723 5721 5719 5717 5717 5716 5714 5713 5712 5711 5710 5710 5710 5710 5711
5618 5627 5634 5639 5652 5659 5667 5677 5687 5695 5707 5709 5712 5716 5722 5726 5726 5726 5726 5727 5727 5726 5727 5727 5727 5727 5727 5725 5724 5723 5722 5721 5720 5720 5718 5717 5715 5715 5714 5714 5713 5713 5714 5715
5609 5618 5626 5641 5645 5653 5663 5672 5680 5688 5696 5703 5710 5715 5719 5723 5724 5724 5725 5726 5726 5726 5727 5727 5727 5727 5728 5727 5725 5724 5723 5723 5723 5723 5721 5720 5718 5717 5718 5718 5717 5717 5718 5718
5602 5614 5628 5635 5640 5647 5656 5666 5674 5682 5690 5695 5701 5707 5714 5720 5722 5722 5723 5725 5726 5725 5726 5727 5728 5728 5729 5728 5727 5727 5727 5727 5727 5727 5725 5724 5723 5722 5722 5722 5723 5722 5722 5721
5598 5610 5618 5623 5634 5643 5654 5662 5670 5677 5684 5689 5695 5701 5710 5716 5719 5721 5722 5723 5725 5725 5726 5727 5729 5729 5730 5729 5729 5729 5730 5731 5730 5729 5729 5729 5729 5728 5728 5728 5728 5728 5727 5728
5592 5601 5610 5616 5628 5640 5648 5658 5664 5671 5679 5685 5692 5699 5706 5710 5715 5719 5721 5722 5723 5724 5725 5727 5728 5730 5731 5731 5731 5731 5732 5734 5734 5733 5733 5733 5733 5734 5734 5733 5734 5735 5734 5734
5586 5595 5604 5612 5624 5633 5635 5649 5658 5666 5675 5683 5689 5694 5701 5705 5708 5716 5719 5721 5722 5723 5725 5726 5728 5729 5731 5732 5732 5733 5734 5735 5737 5737 5736 5737 5738 5738 5738 5739 5739 5739 5740 5741
5581 5589 5597 5610 5619 5625 5635 5644 5652 5661 5670 5678 5684 5690 5696 5701 5706 5710 5715 5718 5721 5723 5723 5725 5726 5728 5730 5732 5733 5734 5736 5737 5738 5739 5739 5740 5740 5741 5741 5742 5743 5744 5745 5746
5577 5587 5596 5606 5613 5622 5629 5638 5647 5656 5665 5673 5680 5685 5691 5696 5702 5706 5710 5715 5718 5721 5723 5724 5725 5726 5728 5731 5733 5734 5735 5737 5739 5740 5741 5742 5743 5743 5744 5745 5746 5748 5749 5750
5573 5583 5592 5599 5606 5615 5623 5632 5641 5650 5659 5667 5674 5680 5686 5691 5697 5702 5705 5711 5715 5718 5720 5722 5723 5724 5726 5728 5731 5733 5734 5736 5739 5740 5742 5743 5745 5746 5747 5748 5750 5752 5753 5755
5566 5576 5584 5590 5598 5607 5615 5625 5635 5644 5654 5661 5669 5676 5682 5687 5693 5698 5703 5706 5712 5715 5718 5719 5721 5723 5724 5726 5728 5730 5732 5735 5736 5739 5742 5743 5745 5747 5748 5750 5751 5753 5755 5756
5563 5572 5580 5585 5594 5602 5610 5620 5630 5638 5648 5656 5664 5671 5678 5684 5690 5693 5698 5702 5705 5711 5714 5716 5718 5720 5722 5724 5726 5727 5729 5732 5735 5737 5739 5742 5744 5746 5748 5750 5752 5753 5754 5756
5558 5566 5576 5581 5588 5597 5606 5615 5623 5632 5642 5650 5658 5665 5673 5680 5685 5689 5694 5700 5703 5705 5709 5712 5714 5717 5718 5720 5722 5724 5726 5729 5731 5734 5736 5738 5741 5744 5747 5748 5750 5752 5753 5754
5555 5562 5571 5576 5581 5589 5599 5609 5617 5626 5636 5644 5651 5658 5666 5673 5679 5684 5689 5694 5698 5700 5702 5707 5710 5711 5715 5717 5719 5720 5723 5725 5728 5730 5733 5735 5738 5740 5743 5745 5747 5749 5750 5751
5551 5555 5564 5572 5576 5583 5591 5601 5611 5620 5628 5637 5644 5651 5659 5666 5673 5678 5682 5686 5689 5694 5697 5700 5704 5706 5709 5712 5714 5716 5718 5721 5723 5726 5728 5731 5734 5736 5738 5740 5742 5744 5746 5747
5548 5553 5560 5565 5572 5577 5585 5593 5603 5613 5621 5628 5636 5644 5650 5657 5665 5671 5676 5679 5683 5688 5691 5694 5697 5699 5702 5706 5710 5712 5714 5716 5718 5720 5723 5726 5728 5731 5732 5735 5737 5738 5739 5741
5545 5551 5555 5561 5565 5570 5578 5586 5594 5603 5612 5620 5628 5635 5642 5648 5655 5661 5666 5671 5675 5679 5683 5687 5691 5695 5696 5699 5701 5706 5708 5710 5713 5716 5717 5719 5722 5724 5726 5728 5730 5732 5733 5735
5538 5545 5549 5553 5557 5563 5570 5578 5585 5594 5602 5610 5618 5625 5633 5639 5646 5652 5659 5663 5666 5672 5676 5679 5683 5686 5689 5692 5695 5696 5698 5703 5705 5708 5711 5714 5715 5717 5718 5721 5723 5725 5726 5727
5528 5534 5539 5544 5550 5554 5559 5566 5575 5584 5591 5598 5607 5614 5622 5629 5637 5644 5650 5654 5657 5663 5668 5671 5675 5678 5680 5682 5686 5689 5691 5692 5698 5699 5703 5706 5709 5710 5711 5712 5715 5717 5718 5719
5520 5523 5529 5535 5542 5546 5549 5555 5563 5571 5578 5586 5594 5603 5611 5618 5626 5633 5639 5644 5647 5653 5658 5661 5664 5666 5668 5670 5673 5679 5684 5684 5686 5693 5696 5699 5700 5702 5703 5704 5706 5709 5710 5711
5515 5515 5516 5522 5529 5534 5539 5545 5551 5560 5565 5571 5580 5588 5597 5605 5612 5619 5625 5631 5637 5641 5646 5646 5651 5650 5654 5660 5663 5666 5673 5676 5678 5682 5687 5691 5693 5695 5697 5698 5698 5701 5702 5703
5505 5505 5509 5510 5512 5519 5526 5534 5540 5547 5553 5557 5564 5573 5582 5592 5599 5605 5611 5617 5623 5628 5631 5633 5634 5638 5645 5648 5653 5654 5658 5662 5667 5671 5678 5681 5683 5685 5687 5690 5691 5690 5694 5694
5503 5502 5503 5504 5505 5508 5513 5520 5526 5533 5537 5545 5551 5555 5566 5575 5585 5591 5597 5601 5606 5612 5617 5622 5624 5627 5631 5631 5636 5623 5635 5647 5656 5662 5669 5672 5673 5676 5678 5680 5681 5682 5684 5686
5499 5496 5496 5497 5497 5500 5501 5504 5511 5517 5524 5531 5537 5545 5551 5559 5566 5573 5581 5585 5592 5596 5599 5607 5614 5615 5617 5611 5603 5614 5623 5636 5640 5653 5659 5661 5663 5665 5667 5670 5671 5672 5672 5673
5495 5491 5488 5488 5489 5487 5488 5490 5497 5501 5508 5514 5522 5530 5534 5542 5546 5556 5563 5571 5575 5577 5579 5588 5601 5603 5610 5605 5599 5604 5611 5620 5632 5640 5644 5647 5650 5653 5657 5659 5660 5661 5661 5660
5489 5487 5484 5482 5479 5480 5484 5487 5489 5487 5490 5496 5502 5505 5512 5519 5526 5536 5544 5555 5558 5559 5560 5571 5584 5593 5597 5599 5596 5595 5601 5608 5617 5627 5633 5637 5640 5643 5645 5645 5647 5647 5647 5647